Location: McDonald Observatory
(30.6717°N, 104.0221°W)
Time: 11:20:19
(UTC-06:00)

Daily predictions for brighter satellites

Satellite Brightness Start Highest point End
(mag) Time Altitude Azimuth Time Altitude Azimuth Time Altitude Azimuth
ATLAS 2A CENTAUR R/B 4.2 18:56:21 10° W 19:02:54 72° S 19:33:03 10° ESE
Cosmos 1980 Rocket 4.1 19:07:33 10° NW 19:12:44 37° WSW 19:17:55 10° S
Meteor 1-11 Rocket 4.2 19:12:53 10° SSE 19:18:12 41° E 19:23:38 10° NNE
DNEPR-1 R/B 3.6 19:14:16 10° NNW 19:18:23 54° ENE 19:22:41 10° SE
BREEZE-M DEB (TANK) 3.1 19:13:12 10° SW 19:20:30 81° SE 19:23:20 10° NE
Cosmos 1602 4.1 19:18:03 10° SSE 19:21:42 42° E 19:25:24 10° NNE
Cosmos 1461 2.9 19:19:04 10° NNW 19:23:04 57° ENE 19:27:09 10° SE
Cosmos 1140 Rocket 3.5 19:18:10 10° S 19:23:12 62° ESE 19:28:17 10° NNE
Resurs 01 Rocket 3.1 19:21:44 10° ESE 19:24:38 17° ENE 19:27:31 10° NNE
Cosmos 1300 Rocket 3.8 19:20:46 10° SSE 19:24:57 46° E 19:29:12 10° NNE
Nadezhda 1 Rocket 4.1 19:19:57 10° N 19:26:01 79° W 19:32:04 10° S
Abrixas rocket 2.3 19:22:58 10° SW 19:26:15 61° SE 19:29:33 10° NE
DELTA 2 R/B (1) 4.3 19:21:16 10° NW 19:26:35 41° NNE 19:31:31 12° E
ATLAS CENTAUR R/B 3.4 19:22:11 10° S 19:28:11 26° SE 19:30:46 12° E
Cosmos 614 Rocket 4.0 19:26:00 10° S 19:30:56 53° ESE 19:35:52 10° NNE
ASTRO E2 3.9 19:27:22 10° W 19:31:07 38° SSW 19:34:52 10° SE
ALOS 3.0 19:29:18 10° SE 19:33:24 31° ENE 19:37:30 10° N
Cosmos 2292 Rocket 4.3 19:29:44 10° S 19:34:24 82° W 19:40:48 10° N
FREGAT/IRIS 2.9 19:32:15 10° SSE 19:35:10 43° ENE 19:38:08 10° N
CENTAUR R/B 4.4 19:30:08 10° NW 19:37:48 46° WSW 19:45:38 10° S
Spot 2 Rocket 4.4 19:35:15 10° SE 19:39:28 27° ENE 19:43:42 10° NNE
Cosmos 1340 2.6 19:40:37 10° N 19:44:22 62° E 19:48:05 10° SSE
Cosmos 2181 Rocket 4.0 19:40:05 10° N 19:46:18 61° E 19:52:34 10° SSE
SL-16 R/B 3.0 19:43:23 10° NNW 19:48:56 56° WSW 19:54:26 10° S
Cosmos 1850 Rocket 3.9 19:45:22 10° S 19:50:36 71° ESE 19:55:55 10° NNE
OTV 4 1.6 19:49:38 10° SSW 19:52:12 27° SSE 19:52:48 25° SE
HJ-1C 3.6 19:50:16 10° SSE 19:53:31 46° ENE 19:56:45 10° N
Cosmos 1709 Rocket 4.5 19:48:34 10° SSW 19:54:45 65° W 20:00:54 10° N
Cosmos 2074 Rocket 4.2 19:48:57 10° SSE 19:54:54 49° E 20:00:53 10° NNE
SJ-6B 2.8 19:52:39 10° SSE 19:56:42 87° W 20:00:40 10° NNW
Helios 1B rocket 3.2 19:54:32 13° NE 19:57:32 29° E 20:01:10 10° SSE
Tiangong 2 1.0 19:54:35 10° NW 19:57:37 62° NNE 19:58:32 39° E
Cosmos 2184 Rocket 4.2 19:51:52 10° SSE 19:57:56 50° E 20:03:57 10° NNE
FengYun 1-2 T 4.2 19:53:41 10° SSE 19:59:02 59° ENE 20:04:26 10° N
Okean 1 Rocket 3.1 19:55:23 10° S 19:59:51 87° W 20:04:21 10° N
CZ-3C R/B 2.6 19:58:46 10° SW 20:02:10 16° SSW 20:03:40 12° SSE
Cosmos 2322 Rocket 3.7 20:00:04 10° NW 20:05:11 37° WSW 20:10:18 10° S
Meteor 1-5 Rocket 4.4 19:59:35 10° S 20:05:23 55° E 20:11:10 10° NNE
Hubble Space Telescope 1.8 20:01:56 10° SW 20:05:38 32° SSE 20:06:47 27° SE
FENGYUN 3A 3.6 20:00:43 10° SSE 20:06:04 71° ENE 20:11:29 10° N
Intercosmos 24 4.0 20:09:07 10° S 20:12:55 67° E 20:18:02 10° N
Meteor 1-19 Rocket 4.3 20:08:19 10° N 20:14:02 86° W 20:19:50 10° S
BREEZE-M DEB (TANK) 4.0 20:14:14 10° NNW 20:17:15 27° NE 20:17:20 27° NE
CZ-2D R/B 4.1 20:18:53 33° NNE 20:18:53 33° NNE 20:21:21 10° N
Cosmos 1238 Rocket 3.6 20:16:50 10° NNW 20:19:35 37° W 20:22:27 10° SSW
GPS 2-04 Rocket1 3.2 20:15:35 10° W 20:19:49 59° NNW 20:21:01 42° NE
Cosmos 2322 3.6 20:16:05 10° NNW 20:21:49 87° ENE 20:27:30 10° SSE
H-2A R/B 2.5 20:21:38 41° SSE 20:22:49 77° ENE 20:26:33 10° N
Cosmos 1536 3.8 20:20:17 10° SSW 20:24:08 48° W 20:28:00 10° N
Cosmos 1025 Rocket 3.0 20:20:53 10° N 20:25:14 60° E 20:25:44 55° ESE
Atlas Centaur 2 3.7 20:20:16 10° SSW 20:25:27 22° SSE 20:26:14 21° SE
OAO 3 Rocket 4.1 20:21:38 10° SSW 20:26:00 32° SSE 20:26:02 32° SSE
Cosmos 2154 Rocket 4.3 20:21:00 10° SSE 20:26:55 43° E 20:32:52 10° NNE
Okean 1-7 Rocket 3.6 20:27:29 10° N 20:32:00 80° W 20:36:27 10° S
Meteor 2-13 Rocket 4.3 20:26:08 10° S 20:32:05 64° E 20:38:06 10° NNE
Cosmos 2285 Rocket 4.3 20:26:15 10° N 20:32:21 44° ENE 20:32:47 43° E
SL-19 R/B 4.4 20:30:15 10° S 20:35:49 76° WSW 20:41:43 10° NNW
BREEZE-M DEB (TANK) 2.8 20:31:38 10° NW 20:35:46 63° W 20:35:46 63° W
COSMOS 2428 2.7 20:31:40 10° N 20:37:16 58° ENE 20:37:44 56° E
Cosmos 2237 4.1 20:31:48 10° NNW 20:37:33 77° ENE 20:39:36 41° SSE
Meteor 1-23 Rocket 4.1 20:31:54 10° N 20:37:42 87° E 20:43:25 10° S
Cosmos 2297 Rocket 4.4 20:33:21 10° SSE 20:33:28 11° SSE 20:33:28 11° SSE
Cosmos 2333 4.4 20:32:59 10° N 20:38:23 51° ENE 20:38:23 51° ENE
Meteor 2-4 Rocket 3.8 20:34:19 10° NNW 20:39:47 70° W 20:45:06 10° S
FUSE 4.4 20:34:42 10° WSW 20:39:49 45° S 20:40:19 43° SSE
Cosmos 2237 Rocket 4.3 20:37:04 10° NNE 20:37:45 12° NNE 20:37:45 12° NNE
Cosmos 2360 Rocket 3.5 20:50:49 10° NW 20:55:59 37° WSW 21:01:08 10° S
Cosmos 2219 Rocket 3.5 20:52:36 10° N 20:55:22 27° N 20:55:22 27° N
Cosmos 2227 Rocket 3.2 20:52:24 10° S 20:55:23 32° S 20:55:23 32° S
Resurs 01 Rocket 3.4 20:56:55 10° SSW 21:00:49 31° W 21:04:44 10° NW
Skynet4D Del rocket 4.4 21:00:16 10° WSW 21:04:10 40° SSW 21:04:10 40° SSW
DELTA 2 R/B (1) 4.0 21:07:42 10° WNW 21:12:19 59° W 21:12:19 59° W
Cosmos 2333 Rocket 4.1 21:26:22 10° NNW 21:28:17 22° NNW 21:28:17 22° NNW
USA 229 DEB 4.3 21:36:38 10° NNW 21:42:03 54° NW 21:42:03 54° NW
USA 229 4.3 21:36:44 10° NNW 21:42:06 53° NW 21:42:06 53° NW
ATLAS 2A CENTAUR R/B 4.0 21:41:30 10° WSW 21:44:17 32° SW 21:44:17 32° SW
